• In Czech Republic
  • List of Countries
  • For 7 days
  • Water Temperature
  • Satellite Maps
  • Weather Map
  • Weather Widgets
  • user-avatar
    Login

    Hourly Weather Yeghegnadzor

    Today, 18 August, Friday

    Time Temperature Precipitation Wind Pressure Humidity
    00:00 +21°C° 0.1 mm 2 mps 653 mmHg 65%
    01:00 +21°C° 0 mm 2 mps 653 mmHg 65%
    02:00 +20°C° 0 mm 2 mps 653 mmHg 65%
    03:00 +20°C° 0 mm 2 mps 653 mmHg 66%
    04:00 +21°C° 0 mm 1 mps 653 mmHg 65%
    05:00 +21°C° 0 mm 1 mps 653 mmHg 64%
    06:00 +21°C° 0 mm 1 mps 653 mmHg 63%
    07:00 +23°C° 0 mm 1 mps 654 mmHg 56%
    08:00 +25°C° 0 mm 1 mps 654 mmHg 50%
    09:00 +27°C° 0 mm 1 mps 655 mmHg 43%
    10:00 +28°C° 0 mm 2 mps 655 mmHg 39%
    11:00 +30°C° 0 mm 2 mps 655 mmHg 36%
    12:00 +31°C° 0 mm 2 mps 655 mmHg 33%
    13:00 +31°C° 0 mm 2 mps 655 mmHg 32%
    14:00 +31°C° 0 mm 2 mps 655 mmHg 31%
    15:00 +32°C° 0 mm 2 mps 654 mmHg 30%
    16:00 +31°C° 0 mm 2 mps 654 mmHg 33%
    17:00 +30°C° 0 mm 2 mps 654 mmHg 35%
    18:00 +29°C° 0 mm 2 mps 654 mmHg 38%
    19:00 +28°C° 0 mm 2 mps 654 mmHg 44%
    20:00 +26°C° 0 mm 2 mps 654 mmHg 51%
    21:00 +24°C° 0 mm 2 mps 654 mmHg 57%
    22:00 +24°C° 0 mm 2 mps 654 mmHg 58%
    23:00 +23°C° 0 mm 2 mps 654 mmHg 59%

    Tomorrow, 19 August, Saturday

    Time Temperature Precipitation Wind Pressure Humidity
    00:00 +23°C° 0 mm 2 mps 654 mmHg 61%
    01:00 +21°C° 0 mm 2 mps 654 mmHg 60%
    02:00 +21°C° 0 mm 2 mps 654 mmHg 60%
    03:00 +21°C° 0 mm 2 mps 654 mmHg 60%
    04:00 +21°C° 0 mm 2 mps 655 mmHg 60%
    05:00 +21°C° 0 mm 2 mps 655 mmHg 59%
    06:00 +21°C° 0 mm 2 mps 655 mmHg 59%
    07:00 +24°C° 0 mm 2 mps 656 mmHg 52%
    08:00 +26°C° 0 mm 2 mps 656 mmHg 44%
    09:00 +28°C° 0 mm 2 mps 657 mmHg 37%
    10:00 +29°C° 0 mm 2 mps 657 mmHg 33%
    11:00 +30°C° 0 mm 2 mps 657 mmHg 30%
    12:00 +32°C° 0 mm 2 mps 657 mmHg 27%
    13:00 +33°C° 0 mm 3 mps 657 mmHg 26%
    14:00 +33°C° 0 mm 3 mps 656 mmHg 24%
    15:00 +34°C° 0 mm 3 mps 656 mmHg 23%
    16:00 +32°C° 0 mm 2 mps 656 mmHg 26%
    17:00 +31°C° 0 mm 2 mps 656 mmHg 29%
    18:00 +30°C° 0 mm 2 mps 655 mmHg 32%
    19:00 +28°C° 0 mm 2 mps 655 mmHg 36%
    20:00 +26°C° 0 mm 3 mps 655 mmHg 39%
    21:00 +24°C° 0 mm 3 mps 656 mmHg 43%
    22:00 +24°C° 0 mm 3 mps 656 mmHg 43%
    23:00 +22°C° 0 mm 3 mps 656 mmHg 43%

    Day after tomorrow, 20 August, Sunday

    Time Temperature Precipitation Wind Pressure Humidity
    00:00 +22°C° 0 mm 3 mps 656 mmHg 44%
    01:00 +23°C° 0 mm 2 mps 656 mmHg 44%
    02:00 +21°C° 0 mm 2 mps 656 mmHg 44%
    03:00 +21°C° 0 mm 2 mps 656 mmHg 45%
    04:00 +21°C° 0 mm 2 mps 656 mmHg 45%
    05:00 +21°C° 0 mm 2 mps 656 mmHg 45%
    06:00 +21°C° 0 mm 2 mps 656 mmHg 46%
    07:00 +24°C° 0 mm 2 mps 656 mmHg 40%
    08:00 +27°C° 0 mm 2 mps 657 mmHg 34%
    09:00 +29°C° 0 mm 2 mps 657 mmHg 28%
    10:00 +30°C° 0 mm 2 mps 657 mmHg 27%
    11:00 +31°C° 0 mm 2 mps 657 mmHg 25%
    12:00 +34°C° 0 mm 3 mps 657 mmHg 23%
    13:00 +34°C° 0 mm 3 mps 657 mmHg 22%
    14:00 +34°C° 0 mm 3 mps 656 mmHg 21%
    15:00 +35°C° 0 mm 3 mps 656 mmHg 21%
    16:00 +34°C° 0 mm 3 mps 656 mmHg 24%
    17:00 +32°C° 0 mm 2 mps 656 mmHg 27%
    18:00 +31°C° 0 mm 2 mps 655 mmHg 30%
    19:00 +29°C° 0 mm 2 mps 655 mmHg 34%
    20:00 +27°C° 0 mm 2 mps 655 mmHg 39%
    21:00 +25°C° 0 mm 3 mps 655 mmHg 44%
    22:00 +24°C° 0 mm 2 mps 655 mmHg 44%
    23:00 +24°C° 0 mm 2 mps 655 mmHg 44%

    21 August, Monday

    Time Temperature Precipitation Wind Pressure Humidity
    00:00 +23°C° 0 mm 2 mps 655 mmHg 44%
    01:00 +23°C° 0 mm 2 mps 655 mmHg 43%
    02:00 +23°C° 0 mm 2 mps 655 mmHg 42%
    03:00 +21°C° 0 mm 2 mps 655 mmHg 41%
    04:00 +21°C° 0 mm 2 mps 655 mmHg 41%
    05:00 +21°C° 0 mm 2 mps 655 mmHg 41%
    06:00 +21°C° 0 mm 2 mps 655 mmHg 40%
    07:00 +25°C° 0 mm 2 mps 656 mmHg 35%
    08:00 +27°C° 0 mm 2 mps 656 mmHg 30%
    09:00 +30°C° 0 mm 2 mps 657 mmHg 25%
    10:00 +31°C° 0 mm 2 mps 656 mmHg 24%
    11:00 +32°C° 0 mm 2 mps 656 mmHg 22%
    12:00 +34°C° 0 mm 2 mps 656 mmHg 20%
    13:00 +34°C° 0 mm 2 mps 656 mmHg 20%
    14:00 +35°C° 0 mm 2 mps 656 mmHg 19%
    15:00 +35°C° 0 mm 2 mps 655 mmHg 18%
    16:00 +34°C° 0 mm 2 mps 655 mmHg 22%
    17:00 +32°C° 0 mm 2 mps 655 mmHg 26%
    18:00 +31°C° 0 mm 2 mps 654 mmHg 29%
    19:00 +29°C° 0 mm 2 mps 654 mmHg 35%
    20:00 +27°C° 0 mm 2 mps 654 mmHg 40%
    21:00 +25°C° 0 mm 2 mps 654 mmHg 46%
    22:00 +24°C° 0 mm 2 mps 654 mmHg 46%
    23:00 +24°C° 0 mm 2 mps 654 mmHg 47%

    22 August, Tuesday

    Time Temperature Precipitation Wind Pressure Humidity
    00:00 +24°C° 0 mm 2 mps 654 mmHg 47%
    01:00 +23°C° 0 mm 2 mps 654 mmHg 46%
    02:00 +23°C° 0 mm 2 mps 654 mmHg 44%
    03:00 +23°C° 0 mm 1 mps 654 mmHg 43%
    04:00 +23°C° 0 mm 1 mps 654 mmHg 42%
    05:00 +23°C° 0 mm 1 mps 654 mmHg 41%
    06:00 +23°C° 0 mm 1 mps 654 mmHg 40%
    07:00 +25°C° 0 mm 1 mps 654 mmHg 35%
    08:00 +28°C° 0 mm 2 mps 655 mmHg 30%
    09:00 +30°C° 0 mm 2 mps 655 mmHg 25%
    10:00 +31°C° 0 mm 2 mps 655 mmHg 23%
    11:00 +34°C° 0 mm 2 mps 655 mmHg 21%
    12:00 +35°C° 0 mm 3 mps 655 mmHg 19%
    13:00 +35°C° 0 mm 2 mps 655 mmHg 18%
    14:00 +36°C° 0 mm 2 mps 654 mmHg 17%
    15:00 +36°C° 0 mm 2 mps 654 mmHg 17%
    16:00 +35°C° 0 mm 2 mps 654 mmHg 20%
    17:00 +34°C° 0 mm 2 mps 653 mmHg 23%
    18:00 +32°C° 0 mm 2 mps 653 mmHg 26%
    19:00 +30°C° 0 mm 2 mps 653 mmHg 30%
    20:00 +28°C° 0 mm 2 mps 653 mmHg 33%
    21:00 +27°C° 0 mm 2 mps 653 mmHg 37%
    22:00 +26°C° 0 mm 2 mps 653 mmHg 38%
    23:00 +26°C° 0 mm 2 mps 653 mmHg 38%

    23 August, Wednesday

    Time Temperature Precipitation Wind Pressure Humidity
    00:00 +25°C° 0 mm 2 mps 653 mmHg 38%
    01:00 +25°C° 0 mm 2 mps 653 mmHg 38%
    02:00 +25°C° 0 mm 2 mps 652 mmHg 37%
    03:00 +24°C° 0 mm 2 mps 652 mmHg 36%
    04:00 +24°C° 0 mm 2 mps 653 mmHg 36%
    05:00 +24°C° 0 mm 2 mps 653 mmHg 35%
    06:00 +24°C° 0 mm 2 mps 653 mmHg 35%
    07:00 +26°C° 0 mm 2 mps 654 mmHg 31%
    08:00 +29°C° 0 mm 2 mps 655 mmHg 28%
    09:00 +31°C° 0 mm 2 mps 655 mmHg 25%
    10:00 +32°C° 0 mm 2 mps 655 mmHg 23%
    11:00 +34°C° 0 mm 2 mps 655 mmHg 22%
    12:00 +35°C° 0 mm 2 mps 655 mmHg 21%
    13:00 +35°C° 0 mm 3 mps 655 mmHg 21%
    14:00 +36°C° 0 mm 3 mps 655 mmHg 21%
    15:00 +36°C° 0 mm 3 mps 655 mmHg 22%
    16:00 +35°C° 0 mm 3 mps 654 mmHg 26%
    17:00 +33°C° 0 mm 3 mps 654 mmHg 30%
    18:00 +31°C° 0 mm 3 mps 654 mmHg 34%
    19:00 +29°C° 0 mm 3 mps 654 mmHg 39%
    20:00 +27°C° 0 mm 3 mps 654 mmHg 43%
    21:00 +25°C° 0 mm 3 mps 655 mmHg 48%
    22:00 +24°C° 0 mm 3 mps 655 mmHg 48%
    23:00 +24°C° 0 mm 3 mps 655 mmHg 49%
    Show more